N9XTN-3 Weather Reports


time (UTC)temp
F
wind
direction
speed
knots
gust
knots
rain 1hr
in
rain 24hr
in
rain mn
in
humidity
%
barometer
mb
20230208174017 43 180 6.1 9.6 0.00 0.00 0.00 70 1019.9
20230208173517 43 180 5.2 9.6 0.00 0.00 0.00 73 1019.9
20230208173017 43 158 5.2 9.6 0.00 0.00 0.00 73 1019.9
20230208172517 42 158 5.2 8.7 0.00 0.00 0.00 74 1019.7
20230208172017 42 180 5.2 7.8 0.00 0.00 0.00 75 1019.7
20230208171517 41 158 5.2 8.7 0.00 0.00 0.00 76 1019.8
20230208171017 41 158 6.1 8.7 0.00 0.00 0.00 77 1020.1
20230208170517 40 180 5.2 8.7 0.00 0.00 0.00 78 1020.0
20230208170017 40 158 4.3 7.8 0.00 0.00 0.00 79 1020.0
20230208165517 40 158 4.3 7.0 0.00 0.00 0.00 80 1020.1
20230208165017 39 158 5.2 8.7 0.00 0.00 0.00 80 1020.1
20230208164517 39 180 4.3 7.0 0.00 0.00 0.00 81 1020.3
20230208164017 39 180 5.2 9.6 0.00 0.00 0.00 81 1020.3
20230208163517 38 158 6.1 9.6 0.00 0.00 0.00 82 1020.3
20230208163017 38 158 6.1 8.7 0.00 0.00 0.00 82 1020.4
20230208162537 37 158 6.1 9.6 0.00 0.00 0.00 83 1020.5
20230208162017 37 158 5.2 10.4 0.00 0.00 0.00 83 1020.6
20230208161517 37 158 7.0 9.6 0.00 0.00 0.00 84 1020.5
20230208161017 36 158 6.1 8.7 0.00 0.00 0.00 84 1020.5
20230208160517 36 158 7.0 10.4 0.00 0.00 0.00 85 1020.4
20230208160017 35 158 5.2 9.6 0.00 0.00 0.00 86 1020.3
20230208155517 35 158 4.3 9.6 0.00 0.00 0.00 86 1020.1
20230208155017 34 180 4.3 6.1 0.00 0.00 0.00 87 1020.1
20230208154517 34 158 4.3 6.1 0.00 0.00 0.00 87 1020.1
20230208154037 33 180 3.5 5.2 0.00 0.00 0.00 87 1019.9
20230208153517 33 180 3.5 6.1 0.00 0.00 0.00 88 1019.8
20230208153037 33 158 2.6 6.1 0.00 0.00 0.00 88 1019.9
20230208152557 32 158 2.6 5.2 0.00 0.00 0.00 89 1020.1
20230208152017 32 158 3.5 6.1 0.00 0.00 0.00 89 1020.2
20230208151517 31 158 2.6 6.1 0.00 0.00 0.00 90 1020.3
20230208151017 31 158 1.7 4.3 0.00 0.00 0.00 90 1020.3
20230208150517 31 158 3.5 5.2 0.00 0.00 0.00 90 1020.2
20230208150017 30 158 2.6 4.3 0.00 0.00 0.00 91 1020.2
20230208145517 30 180 2.6 4.3 0.00 0.00 0.00 91 1020.1
20230208145017 29 180 1.7 3.5 0.00 0.00 0.00 91 1019.6
20230208144537 29 180 0.9 4.3 0.00 0.00 0.00 92 1020.0
20230208144037 29 158 1.7 3.5 0.00 0.00 0.00 92 1020.1
20230208143517 28 158 0.9 3.5 0.00 0.00 0.00 92 1020.1
20230208143017 28 158 1.7 4.3 0.00 0.00 0.00 92 1020.2
20230208142517 28 0.0 1.7 0.00 0.00 0.00 93 1020.2
20230208142137 28 158 0.9 3.5 0.00 0.00 0.00 92 1020.4
20230208141517 27 158 1.7 3.5 0.00 0.00 0.00 92 1020.4
20230208141017 27 158 1.7 3.5 0.00 0.00 0.00 92 1020.1
20230208140517 27 158 0.9 3.5 0.00 0.00 0.00 92 1020.0
20230208140037 27 0.0 1.7 0.00 0.00 0.00 92 1020.0
20230208135517 27 0.0 0.0 0.00 0.00 0.00 92 1020.1
20230208135017 27 0.0 0.0 0.00 0.00 0.00 92 1020.2
20230208134517 27 0.0 0.0 0.00 0.00 0.00 91 1020.4
20230208134017 27 0.0 0.0 0.00 0.00 0.00 91 1020.5
20230208133517 27 0.0 0.0 0.00 0.00 0.00 91 1020.7
20230208133017 27 0.0 0.0 0.00 0.00 0.00 91 1020.8
20230208132518 27 0.0 1.7 0.00 0.00 0.00 91 1020.9
20230208132017 27 158 0.9 1.7 0.00 0.00 0.00 91 1021.0
20230208131537 27 0.0 0.9 0.00 0.00 0.00 90 1021.0
20230208131017 27 0.0 1.7 0.00 0.00 0.00 90 1021.1
20230208130517 27 0.0 1.7 0.00 0.00 0.00 90 1021.1
20230208130017 28 158 0.9 3.5 0.00 0.00 0.00 90 1021.4
20230208125517 28 158 0.9 1.7 0.00 0.00 0.00 90 1021.6
20230208125017 28 158 2.6 5.2 0.00 0.00 0.00 90 1021.7
20230208124517 28 158 3.5 5.2 0.00 0.00 0.00 90 1021.7
20230208124017 28 158 3.5 5.2 0.00 0.00 0.00 90 1021.8
20230208123517 28 158 2.6 6.1 0.00 0.00 0.00 90 1021.9
20230208123038 28 158 3.5 6.1 0.00 0.00 0.00 90 1021.8
20230208122517 29 180 5.2 9.6 0.00 0.00 0.00 91 1022.0
20230208122017 28 158 5.2 10.4 0.00 0.00 0.00 91 1022.0
20230208121517 28 158 4.3 6.1 0.00 0.00 0.00 91 1022.0
20230208121017 29 158 3.5 6.1 0.00 0.00 0.00 90 1022.0
20230208120517 29 158 3.5 7.0 0.00 0.00 0.00 90 1022.1
20230208120017 29 158 4.3 7.8 0.00 0.00 0.00 90 1022.2
20230208115517 29 158 5.2 9.6 0.00 0.00 0.00 90 1022.1
20230208115037 29 158 6.1 11.3 0.00 0.00 0.00 91 1022.1
20230208114517 29 158 5.2 7.8 0.00 0.00 0.00 91 1022.1
20230208114017 28 158 5.2 7.0 0.00 0.00 0.00 90 1021.9
20230208113537 28 158 5.2 7.0 0.00 0.00 0.00 90 1022.0
20230208113017 28 158 5.2 7.8 0.00 0.00 0.00 91 1021.9
20230208112537 28 158 4.3 7.8 0.00 0.00 0.00 90 1021.8
20230208112017 28 158 4.3 6.1 0.00 0.00 0.00 90 1021.8
20230208111557 28 158 5.2 7.0 0.00 0.00 0.00 90 1021.8
20230208111018 28 135 4.3 6.1 0.00 0.00 0.00 90 1021.8
20230208110517 28 135 4.3 6.1 0.00 0.00 0.00 90 1021.7
20230208110017 28 158 4.3 6.1 0.00 0.00 0.00 90 1021.7
20230208105517 28 158 4.3 6.1 0.00 0.00 0.00 90 1021.7
20230208105017 28 158 4.3 5.2 0.00 0.00 0.00 90 1021.7
20230208104537 28 158 4.3 6.1 0.00 0.00 0.00 89 1021.8
20230208104017 28 158 3.5 5.2 0.00 0.00 0.00 89 1021.7
20230208103537 28 158 3.5 4.3 0.00 0.00 0.00 89 1021.5
20230208103017 28 158 3.5 5.2 0.00 0.00 0.00 89 1021.5
20230208102517 28 158 4.3 6.1 0.00 0.00 0.00 89 1021.6
20230208102017 28 158 4.3 6.1 0.00 0.00 0.00 89 1021.6
20230208101517 29 158 3.5 4.3 0.00 0.00 0.00 89 1021.7
20230208101017 29 158 3.5 4.3 0.00 0.00 0.00 89 1021.6
20230208100517 29 158 4.3 5.2 0.00 0.00 0.00 90 1021.6
20230208100017 28 158 3.5 5.2 0.00 0.00 0.00 90 1021.5
20230208095517 28 158 2.6 4.3 0.00 0.00 0.00 89 1021.6
20230208095017 28 158 2.6 4.3 0.00 0.00 0.00 89 1021.6
20230208094517 28 158 1.7 3.5 0.00 0.00 0.00 89 1021.6
20230208094017 28 158 0.9 3.5 0.00 0.00 0.00 88 1021.6
20230208093517 28 0.0 1.7 0.00 0.00 0.00 88 1021.6
20230208093017 28 0.0 0.0 0.00 0.00 0.00 87 1021.7
20230208092517 28 0.0 0.0 0.00 0.00 0.00 87 1021.7
20230208092017 28 158 0.9 1.7 0.00 0.00 0.00 87 1022.0
20230208091537 28 158 0.9 1.7 0.00 0.00 0.00 86 1022.1
20230208091017 29 158 0.9 3.5 0.00 0.00 0.00 86 1022.1
20230208090517 29 0.0 0.0 0.00 0.00 0.00 86 1022.2
20230208090037 29 0.0 0.0 0.00 0.00 0.00 86 1022.3
20230208085517 29 0.0 0.0 0.00 0.00 0.00 86 1022.3
20230208085058 29 0.0 0.9 0.00 0.00 0.00 86 1022.3
20230208084517 29 158 1.7 3.5 0.00 0.00 0.00 86 1022.4
20230208084017 29 158 1.7 3.5 0.00 0.00 0.00 86 1022.5
20230208083537 29 158 2.6 4.3 0.00 0.00 0.00 86 1022.5
20230208083017 29 158 2.6 4.3 0.00 0.00 0.00 86 1022.4
20230208082557 29 158 2.6 4.3 0.00 0.00 0.00 86 1022.5
20230208082017 29 158 4.3 7.0 0.00 0.00 0.00 86 1022.5
20230208081517 29 158 2.6 4.3 0.00 0.00 0.00 85 1022.5
20230208081017 29 158 0.9 1.7 0.00 0.00 0.00 85 1022.4
20230208080517 29 158 1.7 4.3 0.00 0.00 0.00 86 1022.4
20230208080017 29 158 3.5 5.2 0.00 0.00 0.00 86 1022.5
20230208075517 29 158 3.5 5.2 0.00 0.00 0.00 87 1022.5
20230208075017 29 158 2.6 4.3 0.00 0.00 0.00 87 1022.4
20230208074517 29 158 3.5 5.2 0.00 0.00 0.00 88 1022.3
20230208074017 28 158 3.5 4.3 0.00 0.00 0.00 88 1022.4
20230208073517 28 158 1.7 3.5 0.00 0.00 0.00 87 1022.3
20230208073017 28 0.0 3.5 0.00 0.00 0.00 87 1022.2
20230208072537 29 0.0 0.0 0.00 0.00 0.00 86 1022.2
20230208072017 29 0.0 0.0 0.00 0.00 0.00 86 1022.3
20230208071517 29 0.0 0.0 0.00 0.00 0.00 86 1022.3
20230208071017 29 0.0 0.0 0.00 0.00 0.00 86 1022.4
20230208070517 29 0.0 0.0 0.00 0.00 0.00 86 1022.4
20230208070037 29 158 0.9 3.5 0.00 0.00 0.00 86 1022.4
20230208065517 29 158 1.7 3.5 0.00 0.00 0.00 86 1022.5
20230208065017 29 158 0.9 3.5 0.00 0.00 0.00 85 1022.6
20230208064517 29 0.0 0.9 0.00 0.00 0.00 85 1022.7
20230208064057 29 0.0 0.9 0.00 0.00 0.00 84 1022.9
20230208063537 29 158 0.9 1.7 0.00 0.00 0.00 84 1022.7
20230208063017 29 0.0 0.0 0.00 0.00 0.00 83 1022.8
20230208062517 30 0.0 0.0 0.00 0.00 0.00 82 1022.9
20230208062017 30 0.0 0.0 0.00 0.00 0.00 82 1022.9
20230208061537 30 0.0 0.0 0.00 0.00 0.00 81 1022.9
20230208061037 30 0.0 0.0 0.00 0.00 0.00 81 1022.9
20230208060517 30 0.0 0.0 0.00 0.00 0.00 81 1022.8
20230208060017 31 0.0 0.0 0.00 0.00 0.00 81 1022.9
20230208055517 31 0.0 0.0 0.00 0.00 0.00 80 1022.9
20230208055017 31 0.0 0.0 0.00 0.00 0.00 80 1022.9
20230208054537 31 0.0 0.9 0.00 0.00 0.00 79 1022.9
20230208054018 32 0.0 0.9 0.00 0.00 0.00 79 1023.0
20230208053517 32 0.0 0.0 0.00 0.00 0.00 77 1023.0
20230208053017 32 0.0 0.0 0.00 0.00 0.00 77 1023.0
20230208052557 33 158 0.9 1.7 0.00 0.00 0.00 76 1023.1
20230208052017 33 0.0 0.9 0.00 0.00 0.00 76 1023.1
20230208051517 33 0.0 1.7 0.00 0.00 0.00 76 1023.1
20230208051017 33 158 0.9 3.5 0.00 0.00 0.00 76 1023.1
20230208050517 33 158 1.7 4.3 0.00 0.00 0.00 75 1023.0
20230208050017 34 158 1.7 3.5 0.00 0.00 0.00 75 1023.0
20230208045517 34 158 1.7 4.3 0.00 0.00 0.00 75 1023.0
20230208045017 34 158 2.6 4.3 0.00 0.00 0.00 74 1023.0
20230208044537 34 158 2.6 3.5 0.00 0.00 0.00 74 1023.0
20230208044017 34 158 2.6 5.2 0.00 0.00 0.00 74 1023.0
20230208043517 34 158 3.5 5.2 0.00 0.00 0.00 74 1022.9
20230208043017 35 158 3.5 5.2 0.00 0.00 0.00 74 1022.9
20230208042517 35 158 2.6 5.2 0.00 0.00 0.00 73 1022.8
20230208042017 35 158 2.6 4.3 0.00 0.00 0.00 73 1022.8
20230208041517 35 158 2.6 4.3 0.00 0.00 0.00 73 1022.9
20230208041017 35 158 3.5 5.2 0.00 0.00 0.00 73 1022.8
20230208040517 35 158 2.6 5.2 0.00 0.00 0.00 73 1022.7
20230208040018 35 158 3.5 5.2 0.00 0.00 0.00 73 1022.7
20230208035517 35 158 2.6 4.3 0.00 0.00 0.00 72 1022.6
20230208035058 36 158 1.7 4.3 0.00 0.00 0.00 72 1022.7
20230208034517 36 158 2.6 5.2 0.00 0.00 0.00 72 1022.8
20230208034017 36 158 3.5 5.2 0.00 0.00 0.00 72 1022.7
20230208033518 35 158 2.6 5.2 0.00 0.00 0.00 73 1022.6
20230208033017 35 158 3.5 5.2 0.00 0.00 0.00 73 1022.7
20230208032517 35 158 1.7 3.5 0.00 0.00 0.00 72 1022.6
20230208032038 35 158 2.6 4.3 0.00 0.00 0.00 72 1022.6
20230208031517 35 158 2.6 4.3 0.00 0.00 0.00 72 1022.6
20230208031017 36 158 1.7 3.5 0.00 0.00 0.00 72 1022.6
20230208030518 36 158 1.7 3.5 0.00 0.00 0.00 71 1022.6
20230208030017 36 158 1.7 3.5 0.00 0.00 0.00 71 1022.6
20230208025522 36 158 0.9 1.7 0.00 0.00 0.00 70 1022.7
20230208025017 36 158 1.7 3.5 0.00 0.00 0.00 70 1022.7
20230208024517 36 158 1.7 3.5 0.00 0.00 0.00 69 1022.7
20230208024017 37 158 1.7 3.5 0.00 0.00 0.00 69 1022.6
20230208023517 37 158 1.7 3.5 0.00 0.00 0.00 69 1022.7
20230208023038 37 158 1.7 4.3 0.00 0.00 0.00 70 1022.6
20230208022522 37 158 2.6 3.5 0.00 0.00 0.00 70 1022.6
20230208022017 37 158 3.5 4.3 0.00 0.00 0.00 70 1022.6
20230208021517 37 158 3.5 5.2 0.00 0.00 0.00 70 1022.6
20230208021017 37 158 2.6 4.3 0.00 0.00 0.00 71 1022.5
20230208020517 36 158 3.5 4.3 0.00 0.00 0.00 71 1022.6
20230208020017 36 158 3.5 4.3 0.00 0.00 0.00 71 1022.5
20230208015618 36 158 3.5 4.3 0.00 0.00 0.00 72 1022.5
20230208015018 36 158 2.6 4.3 0.00 0.00 0.00 72 1022.6
20230208014518 36 158 1.7 3.5 0.00 0.00 0.00 72 1022.6
20230208014022 36 158 0.9 3.5 0.00 0.00 0.00 72 1022.6
20230208013517 36 158 0.9 1.7 0.00 0.00 0.00 72 1022.7
20230208013044 37 158 0.9 1.7 0.00 0.00 0.00 71 1022.8
20230208012524 37 158 1.7 3.5 0.00 0.00 0.00 70 1022.8
20230208012018 38 158 1.7 3.5 0.00 0.00 0.00 69 1022.9
20230208011537 38 158 0.9 3.5 0.00 0.00 0.00 69 1022.9
20230208011017 38 158 1.7 3.5 0.00 0.00 0.00 68 1022.9
20230208010538 39 158 1.7 3.5 0.00 0.00 0.00 68 1022.9
20230208010017 39 158 1.7 3.5 0.00 0.00 0.00 68 1023.0
20230208005517 39 180 2.6 4.3 0.00 0.00 0.00 67 1023.0
20230208005022 39 180 1.7 3.5 0.00 0.00 0.00 68 1022.9
20230208004517 38 180 0.9 1.7 0.00 0.00 0.00 69 1022.9
20230208004017 38 180 1.7 1.7 0.00 0.00 0.00 70 1023.0
20230208003517 38 180 1.7 3.5 0.00 0.00 0.00 71 1022.9
20230208003017 38 180 1.7 3.5 0.00 0.00 0.00 70 1023.0
20230208002517 39 180 0.9 2.6 0.00 0.00 0.00 69 1023.0
20230208002017 39 180 1.7 2.6 0.00 0.00 0.00 68 1023.0
20230208001517 39 180 0.9 2.6 0.00 0.00 0.00 68 1023.0
20230208001017 39 180 0.9 1.7 0.00 0.00 0.00 68 1023.0
20230208000517 40 180 0.9 1.7 0.00 0.00 0.00 66 1023.0
20230208000017 41 180 0.9 1.7 0.00 0.00 0.00 64 1023.1
20230207235517 41 180 0.9 1.7 0.00 0.00 0.00 63 1023.1
20230207235017 42 180 0.9 1.7 0.00 0.00 0.00 63 1023.1
20230207234517 42 180 0.9 2.6 0.00 0.00 0.00 63 1023.0
20230207234017 42 0.0 0.9 0.00 0.00 0.00 62 1023.0
20230207233517 43 180 0.9 1.7 0.00 0.00 0.00 61 1023.1
20230207233017 43 180 0.9 1.7 0.00 0.00 0.00 61 1023.2
20230207232517 43 180 0.9 1.7 0.00 0.00 0.00 61 1023.2
20230207232017 43 180 0.9 2.6 0.00 0.00 0.00 59 1023.1
20230207231537 44 180 0.9 1.7 0.00 0.00 0.00 59 1023.1
20230207231017 44 203 1.7 2.6 0.00 0.00 0.00 59 1023.0
20230207230517 44 203 0.9 2.6 0.00 0.00 0.00 58 1023.0
20230207230017 45 203 1.7 3.5 0.00 0.00 0.00 57 1023.1
20230207225517 45 203 0.9 2.6 0.00 0.00 0.00 57 1023.0
20230207225017 46 203 0.9 2.6 0.00 0.00 0.00 59 1023.0
20230207224537 46 203 0.9 2.6 0.00 0.00 0.00 58 1022.9
20230207224017 45 203 0.9 2.6 0.00 0.00 0.00 58 1022.9
20230207223517 45 203 0.9 2.6 0.00 0.00 0.00 59 1022.9
20230207223037 45 225 1.7 3.5 0.00 0.00 0.00 58 1022.8
20230207222517 45 248 1.7 2.6 0.00 0.00 0.00 58 1022.8
20230207222017 45 225 2.6 4.3 0.00 0.00 0.00 56 1022.7
20230207221517 45 225 2.6 3.5 0.00 0.00 0.00 56 1022.9
20230207221017 45 225 0.9 3.5 0.00 0.00 0.00 58 1023.0
20230207220517 45 225 1.7 3.5 0.00 0.00 0.00 56 1023.0
20230207220017 45 248 2.6 4.3 0.00 0.00 0.00 54 1022.9
20230207215517 45 248 3.5 5.2 0.00 0.00 0.00 55 1022.8
20230207214537 45 225 2.6 5.2 0.00 0.00 0.00 52 1022.6
20230207214037 46 248 2.6 5.2 0.00 0.00 0.00 53 1022.6
20230207213638 46 248 1.7 2.6 0.00 0.00 0.00 53 1022.5
20230207213018 45 248 2.6 4.3 0.00 0.00 0.00 51 1022.4
20230207212517 45 248 3.5 5.2 0.00 0.00 0.00 51 1022.5
20230207212017 46 248 2.6 5.2 0.00 0.00 0.00 53 1022.6
20230207211518 45 270 2.6 5.2 0.00 0.00 0.00 55 1022.4
20230207211017 45 248 2.6 5.2 0.00 0.00 0.00 52 1022.4
20230207210538 45 248 2.6 5.2 0.00 0.00 0.00 55 1022.4
20230207210017 45 225 2.6 5.2 0.00 0.00 0.00 54 1022.4
20230207205517 45 225 2.6 5.2 0.00 0.00 0.00 55 1022.3
20230207205017 44 225 2.6 4.3 0.00 0.00 0.00 57 1022.3
20230207204517 44 248 2.6 5.2 0.00 0.00 0.00 56 1022.4
20230207204017 44 225 2.6 5.2 0.00 0.00 0.00 54 1022.3
20230207203517 44 225 0.9 2.6 0.00 0.00 0.00 55 1022.3
20230207203037 44 338 1.7 4.3 0.00 0.00 0.00 55 1022.4
20230207202517 44 248 1.7 4.3 0.00 0.00 0.00 55 1022.3
20230207202018 43 225 1.7 3.5 0.00 0.00 0.00 57 1022.3
20230207201517 43 225 2.6 5.2 0.00 0.00 0.00 55 1022.4
20230207201017 43 270 2.6 5.2 0.00 0.00 0.00 57 1022.4
20230207200517 43 270 3.5 6.1 0.00 0.00 0.00 54 1022.4
20230207200017 43 270 1.7 4.3 0.00 0.00 0.00 59 1022.5
20230207195517 43 248 2.6 5.2 0.00 0.00 0.00 57 1022.6
20230207194517 43 248 2.6 5.2 0.00 0.00 0.00 59 1022.4
20230207194017 43 248 2.6 5.2 0.00 0.00 0.00 59 1022.5
20230207193518 43 248 1.7 5.2 0.00 0.00 0.00 56 1022.6
20230207193017 43 270 1.7 3.5 0.00 0.00 0.00 57 1022.6
20230207192518 43 293 1.7 6.1 0.00 0.00 0.00 57 1022.6
20230207192017 42 248 1.7 4.3 0.00 0.00 0.00 56 1022.6
20230207191537 42 270 2.6 5.2 0.00 0.00 0.00 58 1022.6
20230207191017 42 225 2.6 4.3 0.00 0.00 0.00 60 1022.6
20230207190538 41 225 1.7 3.5 0.00 0.00 0.00 60 1022.6
20230207190017 41 248 2.6 5.2 0.00 0.00 0.00 59 1022.6
20230207185517 41 248 2.6 5.2 0.00 0.00 0.00 60 1022.6
20230207185037 41 248 2.6 7.8 0.00 0.00 0.00 58 1022.7
20230207184518 41 293 1.7 4.3 0.00 0.00 0.00 59 1022.8
20230207184017 41 270 2.6 4.3 0.00 0.00 0.00 58 1022.8
20230207183518 41 248 2.6 4.3 0.00 0.00 0.00 60 1022.8
20230207183018 40 270 2.6 5.2 0.00 0.00 0.00 60 1022.8
20230207182517 40 270 2.6 5.2 0.00 0.00 0.00 59 1022.8
20230207182017 40 270 1.7 4.3 0.00 0.00 0.00 62 1023.0
20230207181517 40 293 1.7 6.1 0.00 0.00 0.00 63 1022.8
20230207181017 39 293 2.6 5.2 0.00 0.00 0.00 63 1022.8
20230207180517 39 248 1.7 4.3 0.00 0.00 0.00 64 1023.0
20230207180037 39 315 1.7 5.2 0.00 0.00 0.00 63 1023.1
20230207175517 39 315 3.5 6.1 0.00 0.00 0.00 63 1023.1
20230207175017 39 315 2.6 6.1 0.00 0.00 0.00 65 1023.1
20230207174538 38 293 2.6 7.0 0.00 0.00 0.00 65 1023.1
20230207174059 38 315 2.6 6.1 0.00 0.00 0.00 67 1023.1